STARLINK-32575, 62173

Orbit data source: Space-Track

STARLINK-32575, 62173 is a payload satellite owned by SpaceX/Seattle (US) in LEO that was launched on Sat, 30 Nov 2024 UTC via an FALCON 9 launch vehicle from the Air Force Western Test Range (AFWTR). Payload-class satellites include a variety of spacecraft equipped with specific instruments for various scientific and technological missions. These include communications satellites like Starlink; space stations such as the ISS; scientific satellites like the Hubble; Earth observation satellites from companies like Planet Labs, Umbra, and HawkEye 360; GPS; miniature CubeSats for education and research; and military/defense satellites.

Loading next visibility...
Identifier
62173, 2024-225L
Orbit
LEO
Country
Flag of USUS
Related business
Manufacturer
SpaceX/Seattle
Mission
Operational Commercial Communications
Bus & Motor
STARLINK V2M, Unknown motor
Mass
730 kg wet, ~700 kg dry
Launch date (UTC)
2024-11-30 (1 year ago)
Launch vehicle
FALCON 9
Launch site
Air Force Western Test Range (AFWTR)
Object type
Payload
Rocket body
Debris
Shape & HBR
Box + 2 Pan, 17.7 m
Radar Cross Section
33.884 m², Large (>1 m²)

Expand to show TLE details & history
Last TLE update: 13 hours ago

TLE from 13 hours ago
0 STARLINK-32575
1 62173U 24225L   26062.70809644  .00004060  00000-0  34776-3 0  9998
2 62173  70.0033 169.3470 0003206 266.0603  94.0190 14.98337919 69235
Epoch: 2026-03-03T16:59Z
TLE epoch observation values (Epoch: 2026-03-03T16:59:39.532Z)
Latitude
0.00002°
Longitude
112.94901°
Altitude
574.612 km
Speed
7.574 km/s
True Right ascension
11h 17m 23s
True Declination
0° 00' 00"
Sunlit
Object was in full shadow at epoch
Visualization orbit readout
Latitude
Unknown
Longitude
Unknown
Altitude
Unknown
Speed
Unknown
Apparent Right ascension
Unknown
Apparent Declination
Unknown
Sunlit
N/A
Visualization observer readout
Local Sidereal Time
10:02:12
Azimuth
Unknown
Elevation
Unknown
Doppler factor
Unknown
Orbital elements
Apogee altitude
572.207 km
Perigee altitude
567.752 km
Semi-major axis
6,948.116 km
Eccentricity
0.00032
Inclination
70.0033°
RAAN
169.347°
Arg. of periapsis
266.0603°
True anomaly
94.05565°
Mean anomaly
94.019°
Eccentric anomaly
94.03732°
Mean motion
3.74751 °/min
Orbital period
96.06 mins
BSTAR
0.00034776
Loading maneuver chart data...
Computing Atmospheric mass density...
Loading historical data...
Loading historical data...
Loading historical data...
Loading historical data...
Loading historical data...
Loading historical data...
Loading historical data...

Documentation

Showing up to 5 results
|